Simultaneous Nadir Overpasses (SNOs) Predictions

Prediction of SNOs between AQUA and METOP-B Satellite Orbit:

Table of predicted SNOs for the next 14.0 days since TLE Epoch: 6/23/2017
Index Date (AQUA) Time (AQUA) Lat,Lon (AQUA) SZA (AQUA ) Date (METOP-B) Time (METOP-B) Lat,Lon (METOP-B) SZA (METOP-B ) Distance(km) Time Diff (sec)
1 06/24/2017 09:56:39 -73.10,-153.48 130.33 06/24/2017 09:55:33 -73.07,-156.26 130.23 90.16 66
2 06/24/2017 10:46:20 73.79, 12.70 50.42 06/24/2017 10:45:59 73.77, 12.66 50.41 2.49 21
3 06/24/2017 11:35:47 -73.88,-179.84 129.49 06/24/2017 11:36:39 -73.84,-179.84 129.53 3.55 52
4 06/27/2017 05:30:58 -73.39, -87.63 129.92 06/27/2017 05:29:48 -73.36, -89.22 129.88 50.71 70
5 06/27/2017 06:20:33 73.78, 79.17 50.50 06/27/2017 06:20:19 73.81, 79.15 50.54 3.26 14
6 06/27/2017 07:10:00 -73.85,-113.35 129.42 06/27/2017 07:10:59 -73.88,-113.35 129.40 3.05 59
7 06/30/2017 01:05:17 -73.68, -21.82 129.45 06/30/2017 01:04:04 -73.59, -22.28 129.51 17.74 73
8 06/30/2017 01:54:47 73.82, 145.52 50.70 06/30/2017 01:54:40 73.79, 145.52 50.67 3.66 7
9 06/30/2017 02:44:14 -73.89, -46.99 129.23 06/30/2017 02:45:20 -73.87, -46.97 129.26 2.59 66
10 07/02/2017 20:39:30 -73.73, 44.54 129.21 07/02/2017 20:38:21 -73.73, 44.44 129.19 3.08 69
11 07/02/2017 21:28:59 73.82,-148.04 50.90 07/02/2017 21:28:59 73.82,-148.00 50.90 1.11 0
12 07/02/2017 22:18:26 -73.88, 19.48 129.03 07/02/2017 22:19:39 -73.90, 19.52 129.03 2.47 73
13 07/05/2017 16:13:44 -73.78, 110.88 128.90 07/05/2017 16:12:41 -73.76, 110.92 128.91 2.54 63
14 07/05/2017 17:03:12 73.83, -81.60 51.16 07/05/2017 17:03:19 73.85, -81.53 51.18 3.35 7




NCC Satellite Simultaneous Nadir Overpasses (SNOs) Prediction Service
